Dewpoint
55 54 55 55 54 54 54 52 51 51 51 50 49 51 51 51 52 51 51 50 49 50 51 51 51 50 51 50 50 51 51 51 51 50 50 50 49 47 48 47 48 47
55 55 56 55 55 55 54 52 51 51 51 50 52 52 51 51 50 50 50 50 50 50 50 50 50 50 50 51 50 50 49 50 50 51 49 48 48 47 47 48 48 47
55 55 55 54 54 55 53 53 52 52 51 52 53 51 51 52 51 50 50 51 51 51 50 50 50 50 50 49 49 49 49 49 49 49 49 48 49 49 48 49 50 49
55 55 55 54 55 54 53 53 52 52 53 53 51 52 52 53 51 51 52 54 49 49 49 49 48 48 48 48 49 48 48 49 49 50 50 50 50 49 49 49 49 48
55 55 55 55 55 54 54 53 52 52 52 52 52 53 52 52 53 53 52 49 48 49 50 50 49 49 50 50 49 49 50 50 49 49 48 48 48 48 48 47 47 47
56 55 55 55 54 54 54 53 53 52 52 52 53 53 52 54 53 52 51 50 51 52 50 50 50 50 51 51 51 50 49 48 48 49 48 49 48 48 47 47 46 46
57 56 56 55 54 54 54 53 53 52 52 53 53 52 54 54 52 52 52 53 52 52 51 50 49 50 51 51 50 48 48 49 49 49 48 48 49 48 49 47 47 47
58 57 55 55 56 57 55 53 53 53 53 53 52 54 54 53 52 53 54 54 53 52 52 52 51 51 52 52 51 51 51 52 48 47 48 48 48 47 47 48 47 48
58 57 56 57 57 56 55 54 54 53 54 53 53 54 54 53 54 54 54 53 53 53 54 53 53 53 53 52 53 53 53 52 52 51 51 50 50 50 50 49 48 49
57 57 57 57 55 55 54 55 55 55 54 54 54 54 54 54 54 54 54 53 53 53 53 53 54 54 53 53 54 55 55 55 54 53 53 53 54 53 53 52 50 51
56 57 57 57 56 57 56 55 55 54 54 54 54 53 54 54 54 54 53 53 54 54 54 55 56 56 56 55 55 55 55 55 55 54 54 54 54 54 57 54 53 52
56 56 56 56 56 56 56 55 56 54 54 54 53 53 54 54 54 54 54 54 54 55 55 56 56 56 56 55 55 55 55 55 55 54 54 54 53 54 54 54 54 54
55 55 56 56 57 56 56 56 55 55 54 55 54 53 54 54 53 54 54 54 55 55 56 56 56 56 56 56 55 54 55 55 54 54 54 54 54 54 54 54 54 55
55 55 55 56 55 55 56 55 54 53 53 53 54 52 53 54 54 54 54 54 55 55 56 56 56 56 56 55 55 54 54 54 54 54 54 53 53 53 54 54 54 54
55 55 55 56 56 56 55 55 55 54 54 54 53 53 54 54 54 55 55 55 55 55 55 55 56 56 55 55 55 55 53 54 53 53 54 53 52 53 53 54 54 54
55 55 55 55 55 55 55 55 56 55 55 54 54 54 55 55 55 55 55 55 54 54 54 55 54 53 53 52 53 55 55 54 53 53 54 53 53 52 52 53 54 54
55 54 54 54 54 54 54 54 55 55 54 54 54 55 55 55 55 54 54 54 54 54 54 54 53 52 47 45 47 50 55 54 54 54 54 54 53 53 54 54 53 54
55 55 54 54 54 54 54 54 54 54 54 54 54 55 55 55 54 54 54 54 54 54 54 53 52 49 41 42 43 44 49 54 53 53 54 54 53 53 54 54 54 55
55 55 55 54 53 53 53 53 53 54 54 54 54 54 54 54 54 54 53 53 53 54 53 53 51 43 40 41 42 42 43 50 54 53 54 54 53 53 54 54 54 54
54 54 54 54 53 53 53 53 52 51 51 52 53 53 54 53 52 53 53 53 53 53 53 52 51 42 40 41 41 41 41 44 53 53 52 53 53 53 53 54 54 53
53 53 53 54 54 53 53 53 52 51 51 51 53 53 53 53 53 52 52 52 52 52 51 51 50 40 39 40 40 40 39 39 48 52 51 50 50 52 53 53 53 49
53 52 52 51 52 52 52 51 50 51 52 50 50 50 50 50 51 50 51 51 51 50 49 48 43 37 38 39 39 39 38 43 49 50 48 46 46 47 49 52 49 46
51 52 51 52 52 51 50 50 51 51 50 51 52 51 52 51 52 51 51 51 50 48 48 47 44 38 38 38 38 37 39 48 49 48 46 46 46 47 48 47 45 43
43 47 48 49 49 50 50 49 49 50 51 51 51 51 51 51 51 50 50 51 49 48 47 46 44 39 38 38 37 36 43 48 48 46 45 45 44 44 45 44 44 45
40 41 42 43 44 45 46 48 49 50 49 50 50 50 50 49 50 51 49 49 47 47 48 45 43 39 37 37 36 35 41 47 47 45 44 43 44 42 41 43 43 43
37 38 39 40 40 40 41 43 45 46 48 49 49 49 49 49 48 48 49 48 45 44 45 44 43 42 38 35 36 35 39 45 46 45 43 42 42 41 40 37 37 38